Location: Rounton
(54.4000°N, 1.3500°W)
Time: 14:36:12
(UTC+00:00)

Vanguard 2 - Pass Details

Date: 29 November 2021
Orbit: 553 x 2936 km, 32.9° (Epoch: 23 January)

Event Time Altitude Azimuth Distance (km) Brightness Sun altitude
Rises 18:53:46 0° 249° (WSW) 4,473 12.6 -26.1°
Reaches altitude 10° 18:57:47 10° 230° (SW) 3,906 11.7 -26.6°
Maximum altitude 19:04:05 18° 194° (SSW) 3,896 11.2 -27.6°
Drops below altitude 10° 19:12:01 10° 160° (SSE) 5,093 11.5 -28.7°
Enters shadow 19:16:59 - 147° (SSE) 6,123 11.8 -29.4°
Sets 19:18:36 0° 144° (SE) 6,470 - -29.7°
